Home   Weather   Toruń   Past weeks

Flag for Poland Past Weather in Toruń, Poland — Yesterday and Last 2 Weeks

Now
42 °F

Overcast.


Feels Like: 42 °F
Forecast: 38 / 54 °F
Wind: 2 mph from Southwest

Location: Torun

Current Time: Apr 26, 2017 at 2:40:26 am

Latest Report: Apr 26, 2017 at 1:00 am


Visibility: 28 mi

Pressure: 29.77 "Hg

Humidity: 72%

Dew Point: 34 °F

Location of ToruńLocation

Past Weather in Toruń — Graph

°F

Toruń Temperature Yesterday

Maximum temperature yesterday: 61 °F (at 1:00 pm)
Minimum temperature yesterday: 42 °F (at 11:00 pm)
Average temperature yesterday: 49 °F

High & Low Weather Summary for the Past Weeks

 TemperatureHumidityPressure
High61 °F (Apr 25, 1:00 pm)96% (Apr 12, 10:00 am)30.53 "Hg (Apr 12, 10:00 am)
Low29 °F (Apr 19, 4:00 am)32% (Apr 20, 5:00 pm)29.55 "Hg (Apr 25, 1:00 pm)
Average42 °F70%29.97 "Hg
* Reported Apr 11 1:00 am — Apr 26 1:00 am, Toruń, Weather by CustomWeather, © 2017

Note: Actual official high and low records may vary slightly from our data, if they occured in-between our weather recording intervals... More about our weather records

Advertising

Toruń Weather History for the Previous 24 Hours

Scroll right to see more
 ConditionsComfort  
Time TempWeatherWind HumidityBarometerVisibility
1:00 am
Wed, Apr 26
42 °FOvercast.2 mph72%29.77 "Hg28 mi
12:00 am43 °FOvercast.2 mph77%29.76 "Hg19 mi
11:00 pm
Tue, Apr 25
42 °FOvercast.2 mph76%29.74 "Hg25 mi
10:00 pm45 °FOvercast.1 mph71%29.72 "Hg12 mi
9:00 pm45 °FOvercast.2 mph75%29.71 "Hg31 mi
8:00 pm46 °FOvercast.3 mph73%29.69 "Hg31 mi
7:00 pm47 °FSprinkles. Overcast.3 mph69%29.68 "Hg22 mi
6:00 pm50 °FOvercast.3 mph66%29.66 "Hg19 mi
5:00 pm49 °FOvercast.2 mph74%29.65 "Hg17 mi
4:00 pm49 °FSprinkles. Overcast.5 mph71%29.63 "Hg10 mi
3:00 pm58 °FSprinkles. Overcast.6 mph41%29.57 "Hg19 mi
2:00 pm61 °FOvercast.7 mph39%29.55 "Hg16 mi
1:00 pm61 °FOvercast.6 mph40%29.55 "Hg16 mi
12:00 pm59 °FOvercast.6 mph44%29.55 "Hg17 mi
11:00 am59 °FOvercast.6 mph46%29.56 "Hg16 mi
10:00 am53 °FOvercast.5 mph54%29.58 "Hg16 mi
9:00 am49 °FOvercast.3 mph60%29.59 "Hg18 mi
8:00 am48 °FOvercast.3 mph62%29.62 "Hg14 mi
7:00 am46 °FOvercast.3 mph64%29.63 "Hg16 mi
6:00 am46 °FOvercast.5 mph63%29.64 "Hg22 mi
5:00 am45 °FOvercast.3 mph64%29.66 "Hg17 mi
4:00 am46 °FOvercast.3 mph64%29.68 "Hg16 mi
3:00 am46 °FOvercast.2 mph64%29.70 "Hg17 mi
2:00 am45 °FPassing clouds.2 mph64%29.72 "Hg14 mi
Weather by CustomWeather, © 2017

See weather overviewHow to use our weather pages